Location: ?astrovice
(49.6513°N, 14.9287°E)
Time: 23:32:58
(UTC+00:00)

Cosmos 1850 Rocket - Pass Details

Date: 09 April 2020
Orbit: 754 x 786 km, 74.0° (Epoch: 27 May)

Event Time Altitude Azimuth Distance (km) Brightness Sun altitude
Exits shadow 20:24:22 17° 210° (SSW) 1,867 5.8 -23.0°
Maximum altitude 20:28:27 76° 295° (WNW) 783 4.1 -23.4°
Drops below altitude 10° 20:33:39 10° 21° (NNE) 2,292 6.8 -24.0°
Sets 20:36:02 0° 23° (NNE) 3,223 7.6 -24.2°
